Regional Weather Roundup
Issued by NWS Kansas City/Pleasant Hill, MO

Home | Current Version | Previous Version | Text Only | Print | Product List | Glossary On
Versions: 1 2 3 4 5 6 7 8 9 10 11 12 13 14 15 16 17 18 19 20 21 22 23 24 25 26 27 28 29 30 31 32 33 34 35 36 37 38 39 40 41 42 43 44 45 46 47 48 49 50
000
ASUS43 KEAX 310104
RWREAX

WEATHER ROUNDUP FOR EASTERN KANSAS AND NORTHWEST MISSOURI
NATIONAL WEATHER SERVICE KANSAS CITY/PLEASANT HILL MO
800 PM CDT MON MAR 30 2015

KSZ040-057-103>105-MOZ028-029-037-043-310200-
...KANSAS CITY METROPOLITAN AREA...

CITY           SKY/WX    TMP DP  RH WIND       PRES   REMARKS
K.C. INTL      PTCLDY    57  32  38 S10       29.95F
K.C. DOWNTOWN  CLEAR     66  29  24 S7        29.95F
LEES SUMMIT    CLEAR     65  31  28 S9        29.97F
OLATHE - IXD   CLEAR     57  34  41 S8        29.98S
OLATHE - OJC   CLEAR     62  33  33 S6        29.97S
LAWRENCE       CLEAR     63  32  31 S8        29.95F

$$

MOZ001>008-011>017-020>025-030>033-038>040-044>046-053-054-310200-
...NORTHERN AND CENTRAL MISSOURI...

CITY           SKY/WX    TMP DP  RH WIND       PRES   REMARKS
ST. JOSEPH     PTCLDY    63  32  31 S9        29.92F
MOSBY          PTCLDY    68  30  24 S6        29.96S
WARRENSBURG    PTCLDY    61  32  33 SW6       29.99R
WHITEMAN AFB   PTCLDY    63  35  35 SW9       29.98R
CLINTON        CLEAR     63  37  39 SW5       30.00R
SEDALIA        PTCLDY    63  33  32 SW7       29.99R
WARSAW         NOT AVBL
MARSHALL       MOCLDY    66  36  32 SW6       29.99R
CHILLICOTHE      N/A     62  36  37 S5        29.95F
MOBERLY        MOCLDY    61  30  31 W8        29.98R
KIRKSVILLE     PTCLDY    61  33  35 SW9       29.93F

$$

MOZ041-047>049-056>058-063>065-088>090-097-310200-
...EASTERN AND SOUTHERN MISSOURI...

CITY           SKY/WX    TMP DP  RH WIND       PRES   REMARKS
ST. LOUIS INTL PTCLDY    66  26  22 SW3       29.98F
SPIRIT OF STL  CLEAR     56  32  40 S5        29.97F
COLUMBIA       MOCLDY    58  31  35 SW8       29.97F
JEFFERSON CITY PTCLDY    66  28  24 CALM      29.97S
MEXICO         PTCLDY    61  39  44 SW8       29.96F
HANNIBAL       PTCLDY    63  25  23 SW9       29.94S
ROLLA          CLEAR     56  30  37 S8        29.98F
LEBANON        CLEAR     63  30  29 SW3       30.01F
OSAGE BEACH    PTCLDY    64  28  25 SW8       29.99S
SPRINGFIELD    CLEAR     58  39  49 S5        30.00F
BRANSON        CLEAR     66  34  30 CALM      30.04S
NEVADA         CLEAR     63  36  36 SW5       30.02R
JOPLIN         CLEAR     64  35  34 SW6       30.01S
WEST PLAINS    CLEAR     59  32  36 S5        30.04F

$$

IAZ060-094-KSZ022-034>040-054-083-096-NEZ052-066-093-310200-
...KANSAS...SOUTHEAST NEBRASKA AND IOWA...

CITY           SKY/WX    TMP DP  RH WIND       PRES   REMARKS
TOPEKA         CLEAR     68  34  28 S7        29.94F
MANHATTAN      CLEAR     65  39  38 S6        29.92S
EMPORIA        CLEAR     61  36  39 S9        29.95F
CHANUTE        CLEAR     62  37  39 S7        29.99F
WICHITA        PTCLDY    67  39  35 S12       29.95F
OMAHA          PTCLDY    71  30  21 W8        29.86S
LINCOLN        MOCLDY    67  29  24 W3        29.91S
FALLS CITY     PTCLDY    69  33  26 SW9       29.89F
LAMONI         PTCLDY    60  32  34 SW13      29.89F
DES MOINES     PTCLDY    65  30  27 W7        29.84R

$$




USA.gov is the U.S. government's official web portal to all federal, state and local government web resources and services.